Temperature
20 20 19 19 19 19 19 18 18 18 18 18 18 18 17 17 17 17 16 17 16 16 16 16 16 16 16 16 16 16 16 16 16 16 16 15 15 15 15 14 14 14 14
20 20 20 19 19 19 19 18 18 18 18 18 18 17 17 17 17 16 16 16 16 16 16 16 15 15 15 15 15 15 15 15 15 15 15 15 15 14 14 14 14 14 14
20 20 20 19 19 19 19 19 18 18 18 18 17 17 17 17 16 16 16 16 16 16 16 15 15 15 15 15 15 15 15 15 15 15 15 15 15 15 14 14 14 14 14
20 19 19 19 19 19 19 18 18 18 18 17 17 17 17 16 16 16 16 16 16 16 15 15 15 15 15 15 15 15 15 15 15 15 15 15 15 14 14 14 14 14 14
19 19 19 19 19 19 18 18 18 18 17 17 17 17 16 16 16 16 16 16 15 15 15 15 15 15 15 15 15 14 14 14 15 15 15 15 15 14 14 14 14 14 13
19 19 19 19 19 18 18 18 17 17 17 17 17 17 16 16 16 16 16 15 15 15 15 15 15 15 15 15 15 15 14 14 14 14 15 14 14 14 14 13 13 13 13
19 19 19 19 19 18 18 17 17 17 17 17 17 16 16 16 16 16 16 15 15 15 15 14 15 15 15 15 14 14 14 14 14 14 14 13 13 13 13 13 13 13 13
19 19 19 18 18 18 18 17 17 17 17 17 16 16 16 16 16 16 16 15 15 15 14 14 14 14 14 14 14 14 14 14 14 13 13 13 13 13 13 12 12 12 12
19 19 18 18 18 18 17 17 17 17 16 16 16 16 16 16 16 16 16 15 15 15 14 14 14 14 14 14 13 13 13 13 13 13 13 13 13 13 13 12 12 13 13
18 18 18 18 18 18 18 17 17 16 16 16 16 15 15 15 16 16 15 14 14 14 14 14 14 14 14 14 13 13 13 13 13 13 13 13 13 13 13 12 12 12 13
18 18 18 18 18 18 17 17 17 16 16 16 15 15 15 15 15 15 15 14 14 14 14 14 14 14 14 13 13 13 13 13 13 12 12 12 12 12 12 12 12 12 12
17 17 17 17 17 17 17 16 16 16 16 16 15 15 15 15 15 15 15 14 14 14 13 14 13 13 13 13 13 13 13 13 12 12 13 12 12 12 12 12 12 12 11
17 17 17 17 17 16 16 16 16 16 16 16 16 15 15 15 15 15 15 14 14 13 13 13 13 13 13 13 13 13 12 12 12 12 12 12 12 12 11 11 11 11 11
16 16 16 16 16 16 16 16 15 15 15 15 15 15 15 15 14 14 14 14 14 13 13 13 13 13 13 13 13 12 12 12 12 12 12 12 12 11 11 11 11 11 11
16 16 16 16 16 15 15 15 15 15 15 14 14 14 14 14 14 14 13 13 13 13 13 13 13 13 13 13 12 12 12 12 12 12 12 12 12 11 11 11 11 11 11
15 15 15 16 15 15 15 15 15 14 14 14 14 14 14 14 14 13 13 13 13 13 13 12 13 13 13 13 12 12 12 12 12 12 12 11 11 11 11 11 10 10 10
15 15 15 15 15 15 15 14 14 14 14 14 14 14 13 13 13 13 13 13 13 13 12 12 12 12 12 12 12 12 12 12 12 12 11 11 11 11 11 11 10 10 10
14 14 14 14 14 14 14 14 14 14 14 14 13 13 13 13 13 13 13 12 12 12 12 12 12 12 12 12 12 12 12 12 11 11 11 11 11 11 11 11 10 10 10
14 14 14 14 14 14 14 14 14 14 13 13 13 13 13 13 12 12 12 12 12 12 12 12 12 12 12 12 12 12 11 11 11 11 11 11 11 11 11 10 10 10 10
13 13 13 13 13 14 13 13 13 13 13 13 13 13 12 12 12 12 12 12 12 12 12 12 11 11 11 11 11 11 11 11 11 11 11 11 10 10 10 10 10 10 10
13 13 13 13 13 13 13 13 13 13 13 13 13 12 12 12 12 12 12 12 12 11 11 11 11 11 11 11 11 11 11 11 11 11 10 10 10 10 10 10 10 10 10
13 13 13 13 13 13 13 13 13 13 13 13 12 12 12 12 12 12 12 12 12 11 11 11 11 11 11 11 11 11 11 11 10 10 10 10 10 10 10 10 10 10 9
12 12 12 12 12 12 12 12 12 12 12 12 12 12 12 12 11 11 11 11 11 11 11 11 10 10 10 10 10 10 10 10 10 10 10 10 10 10 9 9 9 9 9
12 12 12 12 12 12 12 12 12 12 12 12 12 12 12 11 11 11 11 11 11 10 10 10 10 10 10 10 10 10 10 10 10 10 10 10 10 9 9 9 9 9 9
12 12 12 12 12 12 12 12 12 12 12 11 11 11 11 11 11 11 10 10 10 10 10 10 10 10 10 10 10 10 10 10 10 10 9 9 9 9 9 9 9 9 8
11 11 11 11 11 11 11 11 11 11 11 11 11 11 11 11 10 10 10 10 10 10 10 10 10 10 10 10 10 9 10 10 10 9 9 9 9 8 8 8 8 8 8
Wind_Speed
7 6 6 6 6 5 5 4 4 3 3 3 3 2 2 2 2 3 4 3 3 3 3 3 4 4 4 4 4 4 4 4 5 4 3 2 3 4 3 3 4 4 2
7 6 6 6 6 6 6 5 4 4 4 3 3 3 3 3 3 3 4 4 4 4 4 4 4 3 4 4 4 4 4 4 5 5 4 4 4 4 3 4 4 3 3
7 7 7 6 6 6 5 5 5 4 4 4 4 4 4 3 3 3 4 5 4 4 4 4 5 5 5 4 5 5 5 5 5 6 5 4 4 3 3 4 4 3 4
6 6 6 6 6 6 5 5 5 5 5 4 4 4 4 4 4 4 4 5 4 4 4 4 5 5 5 5 5 5 5 5 5 6 5 4 4 3 4 4 4 3 4
6 6 5 5 5 5 4 4 4 4 5 4 4 4 4 4 3 4 5 5 4 4 4 5 5 4 5 5 6 5 5 6 5 5 5 5 4 3 4 4 4 4 3
5 5 4 4 4 4 4 4 4 5 4 4 5 5 5 4 0 2 5 5 5 5 5 5 5 4 3 4 5 5 6 6 6 6 5 5 5 5 4 5 5 5 4
5 4 4 4 4 4 4 4 4 4 5 5 5 5 5 3 2 3 5 6 5 5 5 5 5 3 3 4 4 6 6 7 7 7 7 7 6 5 5 6 5 5 5
5 4 4 4 3 3 3 4 4 4 4 5 5 5 5 3 3 4 5 6 6 5 5 5 5 4 4 5 5 5 5 5 5 6 6 7 6 5 5 6 5 5 5
4 4 4 4 3 3 3 3 3 4 4 5 5 5 5 4 3 4 5 6 5 5 5 5 5 5 3 5 5 5 5 5 3 3 3 4 4 5 6 6 5 5 5
4 4 3 4 3 3 3 3 3 3 4 4 4 4 5 5 4 5 6 5 5 5 5 5 4 4 3 4 5 5 6 6 5 3 4 5 5 5 5 6 6 6 5
3 3 3 3 4 4 3 3 3 3 3 4 4 5 5 5 4 6 6 5 5 5 5 5 3 4 4 5 6 5 6 6 6 5 5 4 4 3 4 4 5 5 5
3 2 2 3 3 2 2 3 3 3 4 4 4 4 4 4 4 5 8 8 7 6 5 5 3 5 5 6 5 5 6 7 6 5 4 4 3 3 3 3 4 4 4
3 2 2 2 2 2 2 3 4 4 4 4 4 4 4 3 3 6 8 8 8 6 5 3 3 5 6 6 7 7 7 6 5 5 4 4 4 3 4 3 4 3 4
3 2 2 2 3 2 2 3 3 3 4 4 4 4 4 3 3 2 3 4 6 6 6 4 6 7 7 5 5 5 5 5 5 5 5 4 4 4 4 4 4 3 4
3 2 3 3 2 2 2 3 3 3 3 5 5 4 4 4 2 2 3 4 4 5 5 5 5 4 5 5 5 4 4 5 5 5 5 5 5 4 4 4 4 4 5
3 3 3 3 2 3 3 3 2 3 2 3 4 6 4 3 2 3 4 5 6 5 5 6 6 5 5 5 5 4 4 5 5 5 5 5 5 5 5 4 4 4 5
3 3 3 3 3 4 4 4 4 3 4 6 6 5 5 4 4 5 5 5 6 6 5 6 5 5 5 5 5 5 5 5 5 6 5 5 5 5 5 5 5 5 5
4 3 4 4 5 5 5 5 5 5 4 4 5 6 5 4 5 6 6 4 3 4 5 6 5 5 5 5 5 5 5 5 5 5 5 5 5 5 5 5 5 6 5
4 3 3 4 4 5 5 5 5 6 5 5 4 3 5 5 6 6 6 4 4 5 5 5 5 5 5 5 5 5 5 5 5 5 5 5 5 5 5 6 6 5 6
4 4 5 5 5 5 5 5 5 5 5 5 5 4 2 3 3 3 4 4 5 5 5 5 5 6 6 5 5 5 5 5 5 5 5 5 5 5 6 6 6 5 5
4 4 5 5 5 5 5 5 5 6 5 5 5 3 2 4 4 4 4 4 4 4 5 5 5 6 5 5 5 5 6 5 5 5 5 5 5 5 5 5 5 5 4
4 4 4 5 5 5 5 5 6 6 6 6 5 3 5 5 4 5 4 4 4 4 4 5 5 5 5 5 5 5 6 6 5 5 5 5 5 5 5 4 4 4 4
5 5 5 5 5 5 6 6 5 5 5 5 5 4 4 4 5 5 5 5 4 4 5 5 5 5 5 5 5 5 6 6 5 5 5 5 5 4 4 4 4 4 3
5 6 6 5 5 5 5 5 5 5 5 5 5 5 5 5 5 5 6 5 5 5 5 5 6 6 7 6 5 5 4 5 6 5 6 6 5 5 4 4 4 4 4
5 5 5 5 5 5 6 5 5 5 5 4 4 4 5 5 5 5 5 5 5 5 6 6 6 6 7 7 6 5 3 3 4 5 5 5 5 5 4 4 4 4 3
5 5 5 5 5 5 5 5 5 5 5 4 4 4 5 5 5 5 5 5 5 5 6 5 6 6 7 6 5 3 1 1 3 5 5 4 4 3 3 3 3 3 3
Wind_Direction
189 195 203 203 203 204 211 215 217 226 233 247 253 262 269 272 278 281 288 280 274 280 282 283 286 299 293 285 275 269 269 269 272 280 274 266 263 279 285 285 284 282 285
183 187 194 200 202 207 209 215 218 222 230 239 254 261 266 267 270 274 280 282 275 274 280 285 284 283 277 280 283 277 275 270 271 280 277 273 263 264 275 281 288 289 295
180 186 191 196 203 211 215 218 219 224 232 240 245 253 262 264 265 269 275 280 278 277 277 276 281 285 282 286 279 277 275 270 268 268 273 276 271 270 277 274 286 293 287
185 194 197 202 206 213 217 219 221 225 231 238 243 246 254 257 258 265 266 268 271 272 271 273 278 278 280 281 273 270 275 275 269 266 271 270 268 268 270 281 287 291 296
189 197 200 206 208 216 218 221 220 226 231 234 244 246 250 251 256 261 262 259 264 268 271 273 275 284 302 295 292 291 283 276 272 270 273 274 278 286 285 290 290 289 285
193 196 196 202 205 211 217 223 226 228 234 238 243 248 249 257 204 257 265 262 260 261 266 270 266 255 258 259 281 293 291 278 281 282 281 284 289 287 296 289 289 290 293
188 189 185 189 196 207 223 227 236 237 234 236 241 246 250 246 199 235 259 261 260 263 267 271 276 275 265 269 254 240 253 256 263 271 278 282 284 290 288 283 288 289 298
170 175 180 189 194 203 217 229 237 242 238 238 242 246 249 241 195 224 251 252 259 262 262 266 273 278 282 289 276 274 274 267 257 252 261 271 277 285 277 278 278 266 265
169 175 182 189 196 207 222 235 241 244 245 242 240 245 245 244 207 214 238 250 251 255 257 256 261 267 288 288 271 274 278 273 253 237 262 273 290 283 282 274 275 274 279
182 188 194 196 200 209 218 232 243 247 250 253 249 250 247 250 213 205 230 247 249 251 248 244 237 254 267 270 264 270 275 278 282 266 243 240 246 240 243 259 270 273 278
191 196 208 208 209 213 218 230 243 247 250 254 254 253 249 248 214 197 215 244 252 254 253 248 233 182 220 248 265 272 283 287 273 266 258 252 248 247 250 255 274 280 283
192 203 220 232 235 208 209 228 236 241 242 244 244 249 248 241 228 208 208 231 264 255 258 261 242 177 214 236 253 271 277 276 268 266 265 264 265 267 267 265 266 272 281
191 206 221 226 235 230 228 232 235 236 248 250 250 253 253 249 218 198 205 220 241 254 265 276 255 219 224 233 237 244 250 258 264 264 265 268 268 267 265 249 243 239 253
201 212 222 226 231 225 244 248 252 257 259 260 262 264 262 254 260 243 232 230 230 242 261 239 215 223 237 255 237 234 247 260 265 266 270 270 269 261 257 265 263 255 255
211 228 239 238 238 241 249 274 268 275 280 278 276 277 276 267 279 312 275 258 256 252 255 254 251 241 239 241 246 248 248 247 254 263 268 266 266 265 262 261 262 263 263
227 234 244 246 243 246 245 250 227 253 228 239 265 274 274 297 298 262 266 276 274 260 253 252 254 252 252 253 250 248 249 254 259 261 263 263 264 265 266 264 258 261 268
247 256 259 257 249 253 254 257 258 238 219 224 227 239 256 274 269 253 250 257 247 226 235 251 254 257 260 264 264 261 259 259 262 263 266 266 266 267 265 263 260 258 261
252 249 252 255 255 255 255 257 259 264 263 261 218 202 211 224 242 246 240 233 233 223 244 251 253 258 261 263 265 267 267 265 260 262 265 266 265 264 263 261 259 262 262
257 261 260 263 258 257 260 261 263 266 268 269 267 203 192 205 215 222 220 237 249 248 251 258 262 262 261 261 264 264 264 264 265 264 265 266 263 260 261 261 261 252 255
246 254 259 262 260 255 253 259 263 264 266 269 270 272 229 241 262 234 223 236 251 257 261 264 268 271 268 265 261 261 260 261 261 262 268 267 266 264 260 260 260 256 251
257 239 222 251 261 263 263 262 264 266 267 266 266 267 255 260 266 269 260 249 250 258 263 265 267 270 270 265 263 264 263 263 267 270 268 265 263 262 264 261 259 262 262
261 261 253 255 260 261 264 262 262 263 265 266 266 247 199 245 265 269 263 259 258 260 262 260 262 265 269 268 266 267 266 266 267 271 271 267 262 259 259 262 263 260 260
256 259 260 260 261 253 252 258 262 264 268 266 265 270 256 258 266 271 274 273 268 266 268 265 264 265 268 268 270 268 268 270 270 269 266 263 259 259 259 258 257 257 256
255 254 258 260 260 263 261 260 262 264 266 268 269 270 269 269 270 271 272 275 274 272 271 269 269 269 268 271 272 270 273 278 272 257 253 256 256 254 251 250 251 252 252
260 257 257 258 256 259 262 263 263 266 268 268 270 273 276 275 273 276 277 275 276 277 277 275 274 273 272 269 274 282 316 298 276 271 251 243 244 248 247 244 246 251 250
263 261 261 263 262 260 261 262 263 266 267 268 270 272 275 276 276 276 277 278 279 276 277 277 279 280 279 272 276 330 294 278 280 281 261 239 239 244 245 236 235 237 239
Height
1533 1534 1536 1537 1537 1538 1539 1540 1540 1540 1541 1541 1540 1540 1539 1539 1538 1537 1537 1536 1535 1534 1533 1532 1531 1530 1530 1529 1528 1527 1527 1526 1525 1524 1523 1521 1519 1518 1517 1516 1514 1512 1511
1531 1532 1534 1535 1536 1536 1537 1538 1538 1538 1538 1538 1538 1537 1537 1536 1536 1535 1534 1534 1533 1532 1531 1530 1529 1528 1527 1526 1526 1525 1524 1523 1523 1521 1520 1519 1517 1516 1514 1512 1512 1511 1509
1529 1530 1531 1532 1533 1534 1535 1535 1536 1536 1536 1536 1535 1535 1534 1534 1533 1533 1532 1531 1531 1530 1529 1528 1527 1526 1525 1524 1523 1523 1522 1521 1520 1519 1518 1516 1515 1514 1512 1510 1509 1507 1506
1527 1529 1530 1530 1531 1532 1532 1533 1533 1533 1533 1533 1533 1532 1532 1531 1531 1530 1530 1529 1528 1527 1526 1525 1525 1523 1522 1521 1521 1519 1519 1518 1517 1516 1515 1514 1512 1511 1509 1508 1507 1505 1503
1525 1526 1527 1528 1529 1529 1530 1530 1530 1530 1530 1530 1530 1530 1529 1529 1528 1528 1527 1526 1525 1524 1523 1522 1522 1520 1519 1518 1518 1517 1516 1515 1515 1514 1513 1512 1510 1509 1508 1506 1505 1503 1501
1523 1524 1525 1526 1526 1527 1527 1527 1527 1527 1527 1527 1527 1527 1526 1526 1525 1524 1523 1523 1522 1521 1520 1519 1519 1518 1516 1515 1514 1513 1512 1512 1511 1511 1510 1509 1507 1506 1505 1504 1502 1501 1499
1521 1522 1522 1523 1524 1524 1525 1525 1525 1525 1524 1524 1524 1523 1523 1522 1521 1521 1520 1519 1519 1518 1518 1517 1517 1515 1514 1512 1511 1509 1509 1508 1507 1507 1506 1505 1504 1503 1502 1500 1499 1498 1496
1518 1519 1520 1520 1521 1521 1522 1522 1522 1521 1521 1521 1520 1520 1519 1518 1518 1517 1516 1516 1515 1515 1514 1513 1513 1511 1511 1509 1508 1507 1506 1505 1504 1503 1502 1501 1501 1499 1498 1497 1496 1494 1493
1515 1516 1517 1518 1518 1518 1518 1518 1518 1518 1518 1517 1517 1516 1516 1515 1514 1513 1512 1512 1512 1511 1511 1510 1509 1508 1507 1506 1505 1504 1502 1501 1501 1499 1498 1497 1496 1496 1495 1495 1493 1492 1491
1513 1514 1515 1515 1515 1515 1515 1515 1515 1515 1514 1514 1514 1513 1512 1511 1510 1510 1509 1509 1508 1508 1507 1507 1505 1505 1504 1503 1502 1501 1499 1498 1498 1496 1495 1494 1494 1493 1492 1491 1490 1490 1488
1511 1512 1512 1512 1512 1512 1512 1512 1512 1511 1511 1511 1510 1509 1508 1507 1507 1506 1506 1505 1505 1505 1505 1504 1503 1501 1500 1499 1498 1498 1496 1496 1495 1494 1493 1492 1491 1490 1489 1487 1487 1486 1485
1509 1509 1510 1510 1510 1509 1508 1508 1508 1508 1508 1507 1507 1506 1505 1504 1504 1503 1502 1502 1501 1501 1501 1501 1500 1498 1497 1496 1495 1494 1493 1493 1492 1491 1491 1489 1489 1487 1486 1485 1483 1482 1481
1506 1506 1506 1506 1506 1506 1505 1505 1505 1505 1505 1505 1504 1503 1503 1502 1501 1500 1499 1499 1498 1498 1498 1497 1496 1495 1494 1493 1492 1491 1490 1490 1489 1489 1488 1487 1486 1484 1483 1482 1480 1479 1478
1503 1503 1503 1503 1503 1503 1502 1502 1502 1502 1502 1501 1501 1500 1500 1499 1498 1497 1496 1495 1495 1494 1494 1493 1492 1492 1491 1490 1489 1488 1488 1487 1487 1486 1485 1484 1483 1482 1481 1480 1479 1477 1476
1500 1500 1500 1500 1500 1499 1498 1498 1498 1498 1498 1498 1497 1497 1496 1495 1494 1493 1492 1492 1491 1491 1490 1490 1490 1489 1488 1487 1486 1486 1485 1484 1483 1483 1482 1481 1480 1479 1478 1477 1476 1475 1474
1497 1497 1497 1497 1496 1496 1495 1495 1494 1494 1493 1493 1492 1492 1491 1490 1489 1489 1488 1488 1488 1487 1487 1487 1487 1486 1485 1484 1484 1483 1482 1481 1481 1480 1479 1479 1478 1476 1475 1474 1473 1472 1471
1494 1494 1494 1494 1493 1493 1493 1492 1491 1491 1490 1489 1488 1487 1486 1485 1485 1485 1484 1484 1484 1483 1483 1483 1483 1482 1482 1481 1481 1480 1479 1478 1477 1477 1476 1475 1475 1474 1473 1471 1470 1469 1468
1491 1490 1490 1490 1490 1490 1489 1489 1489 1488 1487 1485 1484 1483 1482 1481 1481 1480 1480 1480 1480 1479 1479 1479 1479 1479 1478 1477 1477 1476 1476 1475 1474 1473 1473 1472 1471 1470 1469 1468 1467 1466 1465
1487 1487 1487 1487 1487 1486 1486 1486 1485 1484 1483 1482 1482 1480 1479 1478 1477 1477 1476 1476 1476 1476 1475 1475 1475 1475 1475 1474 1473 1472 1472 1471 1470 1469 1469 1468 1467 1467 1466 1465 1463 1462 1461
1483 1483 1483 1483 1483 1483 1482 1482 1481 1480 1479 1479 1478 1478 1477 1476 1475 1474 1473 1473 1472 1472 1471 1471 1471 1471 1471 1470 1469 1468 1468 1467 1466 1466 1465 1464 1463 1463 1462 1461 1460 1459 1457
1481 1480 1479 1479 1479 1479 1478 1477 1477 1476 1476 1475 1475 1474 1473 1473 1472 1471 1470 1469 1468 1468 1467 1467 1467 1467 1466 1466 1465 1464 1464 1463 1462 1462 1461 1460 1459 1458 1458 1457 1456 1455 1454
1477 1476 1476 1475 1475 1474 1474 1474 1473 1472 1472 1471 1471 1470 1469 1469 1468 1467 1466 1465 1465 1464 1464 1463 1463 1462 1462 1461 1461 1460 1459 1458 1458 1457 1456 1455 1455 1454 1453 1452 1452 1451 1450
1472 1472 1472 1471 1471 1471 1470 1470 1469 1469 1468 1467 1467 1466 1466 1465 1464 1463 1462 1461 1461 1460 1459 1459 1458 1458 1457 1457 1456 1455 1455 1454 1453 1452 1451 1451 1450 1450 1449 1449 1448 1447 1446
1468 1468 1468 1468 1467 1467 1467 1466 1466 1465 1465 1464 1463 1463 1462 1461 1460 1459 1458 1458 1457 1456 1455 1454 1454 1453 1452 1452 1451 1450 1449 1449 1448 1447 1447 1446 1446 1446 1445 1445 1444 1444 1443
1465 1464 1464 1464 1464 1463 1463 1462 1462 1462 1461 1460 1460 1459 1458 1457 1456 1455 1454 1453 1452 1451 1451 1450 1449 1448 1447 1446 1446 1445 1444 1443 1443 1443 1442 1442 1441 1441 1441 1441 1441 1441 1440
1461 1461 1461 1461 1460 1460 1459 1459 1459 1458 1458 1457 1456 1455 1454 1453 1452 1451 1450 1448 1447 1447 1446 1445 1444 1443 1442 1441 1440 1439 1439 1438 1438 1438 1438 1438 1438 1438 1438 1438 1438 1438 1438